Weather Service Report


073 
ASUS44 KEWX 262111
RWRTX 
SOUTH TEXAS REGIONAL WEATHER ROUNDUP
NATIONAL WEATHER SERVICE AUSTIN/SAN ANTONIO TX
300 PM CST SUN FEB 26 2017

NOTE: "FAIR" INDICATED FEW OR NO CLOUDS BELOW 12,000 FEET WITH NO
SIGNIFICANT WEATHER AND/OR OBSTRUCTIONS TO VISIBILITY.

* - THESE STATIONS ARE NOT NWS OR FAA STATIONS...AND ARE NOT SUBJECT
    TO NWS AND FAA QUALITY CONTROL.
 
TXZ171-172-183>190-262200-
TEXAS HILL COUNTRY AND EDWARDS PLATEAU
  
CITY           SKY/WX    TMP DP  RH WIND       PRES   REMARKS
JUNCTION       PTSUNNY   70  56  61 SW10      29.86F                  
*LLANO         CLOUDY    64  55  72 E8        29.91F                  
BURNET         CLOUDY    62  56  80 S9        29.91F                  
*HORSESHOE BAY   N/A     69  59  71 S9G17     29.88F                  
*KERRVILLE     CLOUDY    64  60  89 S10       29.88F                  
*FREDERICKSBRG CLOUDY    64  57  78 S8        29.88F                  
*ROCKSPRINGS   PTSUNNY   66  57  72 S9        29.89F                  
*BOERNE STAGE  CLOUDY    68  59  73 S14       29.89F                  
*CASTROVILLE   PTSUNNY   76  60  58 CALM      29.87F                  
HONDO          PTSUNNY   75  61  61 S13       29.86F                  
*UVALDE        CLOUDY    67  58  73 CALM      29.88F                  
DEL RIO        SUNNY     71  53  52 S10       29.83F                  
LAUGHLIN AFB   MOSUNNY   72  55  54 SE5       29.83F                  
CARRIZO SPRGS  MOSUNNY   72  59  64 CALM      29.84F                  
*EAGLE PASS    CLEAR     73  55  53 VRB6G12   29.85S                  
$$

TXZ173-191>194-202-209-217>225-228-262200-
CENTRAL AND SOUTH CENTRAL TEXAS
  
CITY           SKY/WX    TMP DP  RH WIND       PRES   REMARKS
GEORGETOWN     CLOUDY    64  54  68 SE5       29.89F                  
AUSTIN/BERGSTM LGT RAIN  69  59  70 CALM      29.88F                  
AUSTIN/MABRY   CLOUDY    70  58  65 VRB7      29.90F                  
*AUSTIN/EXEC   PTSUNNY   68  59  73 S9        29.90F                  
*LAGO VISTA    CLOUDY    64  58  80 S7        29.89F                  
SAN MARCOS     CLOUDY    66  61  82 NE6       29.89F                  
NEW BRAUNFELS  CLOUDY    74  63  68 SE7       29.85F                  
RANDOLPH AFB   PTSUNNY   73  64  73 S5        29.85F                  
PT SAN ANTONIO MOSUNNY   75  63  64 SW5       29.84F                  
SAN ANTONIO    PTSUNNY   75  63  66 S9        29.86F                  
STINSON FIELD  CLOUDY    76  62  62 VRB5      29.84F                  
*PLEASANTON    PTSUNNY   81  61  49 S7        29.85F                  
*LA GRANGE     CLOUDY    72  62  71 S16G24    29.89F                  
*GIDDINGS      CLOUDY   N/A N/A N/A S9        29.91F                  
*GONZALES      CLOUDY    75  65  70 SE16      29.88F                  
$$

TXZ163>164-176>182-195>201-210>213-226-227-235-262200-
SOUTHEAST TEXAS
  
CITY           SKY/WX    TMP DP  RH WIND       PRES   REMARKS
COLLEGE STN    LGT RAIN  72  58  61 S15       29.91F                  
*BRYAN         CLOUDY    71  58  63 SE13      29.92F                  
*CALDWELL      NOT AVBL                                               
*CROCKETT      MOSUNNY   70  55  60 S15G21    29.95F                  
*BRENHAM       CLOUDY    73  58  61 SE10      29.92F                  
HUNTSVILLE     CLOUDY    71  54  54 SE12G23   29.93F                  
CONROE         CLOUDY    72  56  57 SE18G24   29.95F                  
HOUSTON BUSH   PTSUNNY   72  58  61 SE21      29.95F                  
HOUSTON HOBBY  CLOUDY    71  58  63 SE10G24   29.95F                  
*HOUSTON SW AP CLOUDY    72  60  66 SE12G22   29.96S                  
PEARLAND       CLOUDY    74  59  59 SE15G23   29.97F                  
HOUSTON HOOKS  CLOUDY    72  56  57 S8G20     29.95F                  
ELLINGTON FLD  CLOUDY    72  57  60 SE15      29.97F                  
SUGAR LAND     CLOUDY    72  60  66 SE17      29.94F                  
*HOUSTON EXEC  CLOUDY    72  57  60 SE15      29.95F                  
*CLEVELAND MUN CLOUDY    72  57  59 S9G22     29.97F                  
*WHARTON       CLOUDY    71  59  65 SE13      29.94F                  
*COLUMBUS      CLOUDY    70  59  66 S13G20    29.93F                  
*EAGLE LAKE    CLOUDY    73  63  71 S13G23    29.93F                  
$$

TXZ214>216-236>238-262200-
THE UPPER TEXAS COAST
  
CITY           SKY/WX    TMP DP  RH WIND       PRES   REMARKS
*ORANGE        PTSUNNY   71  60  67 SE14G22   30.03F                  
PORT ARTHUR    CLOUDY    71  59  65 E18G25    30.00F                  
GALVESTON      PTSUNNY   71  63  75 E17       29.96F                  
ANGLETON       CLOUDY    73  63  70 SE14G21   29.95F                  
*BAY CITY      CLOUDY    72  62  72 SE12      29.93F                  
PALACIOS       CLOUDY    74  63  68 SE20      29.92F                  
$$

TXZ229>234-239>247-262200-
TEXAS COASTAL BEND AND RIO GRANDE PLAINS
  
CITY           SKY/WX    TMP DP  RH WIND       PRES   REMARKS
VICTORIA       CLOUDY    73  66  78 SE14      29.91F                  
*BEEVILLE      CLOUDY    77  67  71 SE16G25   29.86F                  
ROCKPORT       PTSUNNY   77  65  66 SE14G23   29.89F                  
*PORT ARANSAS  CLOUDY    73  66  78 SE13      29.88F                  
*PORT LAVACA   CLOUDY    73  66  80 SE17G23   29.91F                  
*INGLESIDE     PTSUNNY   78  67  69 SE16G23   29.88F                  
CORPUS CHRISTI MOSUNNY   81  65  58 S24       29.86F                  
CORPUS NAS     MOSUNNY   78  71  79 SE21G28   29.88F                  
*ROBSTOWN      PTSUNNY   82  65  56 SE22G32   29.85F                  
ALICE          MOSUNNY   84  65  52 SE16G26   29.83F                  
KINGSVILLE NAS PTSUNNY   82  68  62 SE23G31   29.84F                  
COTULLA        MOSUNNY   82  60  47 VRB6      29.83F                  
*FAITH RANCH   SUNNY     79  61  53 VRB6      29.83F                  
LAREDO         SUNNY     85  61  44 S9G20     29.82F                  
$$

TXZ248>255-262200-
DEEP SOUTH TEXAS
  
CITY           SKY/WX    TMP DP  RH WIND       PRES   REMARKS
BROWNSVILLE    PTSUNNY   81  66  61 SE22      29.87F                  
PORT ISABEL    PTSUNNY   81  68  64 SE22G28   29.86F                  
*SOUTH PADRE   NOT AVBL                                               
HARLINGEN      PTSUNNY   82  65  56 S20       29.85F                  
*HEBBRONVILLE  PTSUNNY   85  57  38 S13G18    29.83F                  
MCALLEN        PTSUNNY   90  64  42 SE21      29.83F HX  91           
*WESLACO       CLOUDY    84  64  51 S18G25    29.84F                  
FALFURRIAS     PTSUNNY   85  61  43 S13G18    29.82F                  
EDINBURG       PTSUNNY   86  60  41 S16G22    29.83F                  
*ZAPATA        SUNNY     86  58  38 S10G17    29.81F                  
$$

TXZ213>215-236>238-242>244-246-247-251-254-255-262200-
CMAN STATIONS
  
STATION/POSITION TIME  TEMP    WIND        PRES    WAVE
                       AIR SEA DIR/SP/G            HT/PER
                 (UTC) (F)     (DEG/KT/KT) (MB)    (FT/S)
SABINE PASS      2048   65 68  110/ 18/ 22 1017.2
SEA RIM ST PARK  2000   67     110/ 15/ 19 1016.7
NORTH JETTY/GLS  2042   71 67  100/ 16/ 18   N/A
EAGLE POINT      2048   67 67  130/ 12/ 14 1014.6
MORGANS POINT    2048   69 66  110/ 12/ 16 1014.9
MISSION/ARANSAS  2000   71                 1013.0
PORT O'CONNOR    2048   69     120/ 13/ 15 1012.5
PORT ARANSAS     2000   70 67  130/ 13/ 14 1012.6
MALAQUITE BEACH  2048   70 69  130/ 13/ 15 1012.1
BAFFIN BAY       2048   74 74  120/ 17/ 22 1011.6
PORT ISABEL      2048   76 72  150/ 15/ 19 1011.6
$$

GMZ080-GMZ150>470-262200-
OFFSHORE BUOY REPORTS
  
STATION/POSITION TIME  TEMP    WIND        PRES    WAVE
                       AIR SEA DIR/SP/G            HT/PER
                 (UTC) (F)     (DEG/KT/KT) (MB)    (FT/S)
20 E GALVESTON   1950   67 66  110/ 12/ 14 1015.5    3/ 5
90 E PT ARANSAS  1950   72 70  130/ 17/ 21 1013.9    5/ 6
35 NE PT MANSFLD 1950   74     150/ 17/ 21 1012.2    6/ 6
200 E PT ISABEL  1950   74 74  130/ 17/ 19 1014.2    5/ 6
$$
  


074 
ASUS44 KEWX 262111
RWREWX
SOUTH TEXAS REGIONAL WEATHER ROUNDUP
NATIONAL WEATHER SERVICE AUSTIN/SAN ANTONIO TX
300 PM CST SUN FEB 26 2017

NOTE: "FAIR" INDICATED FEW OR NO CLOUDS BELOW 12,000 FEET WITH NO
SIGNIFICANT WEATHER AND/OR OBSTRUCTIONS TO VISIBILITY.

* - THESE STATIONS ARE NOT NWS OR FAA STATIONS...AND ARE NOT SUBJECT
    TO NWS AND FAA QUALITY CONTROL.
 
TXZ171-172-183>190-262200-
TEXAS HILL COUNTRY AND EDWARDS PLATEAU
  
CITY           SKY/WX    TMP DP  RH WIND       PRES   REMARKS
JUNCTION       PTSUNNY   70  56  61 SW10      29.86F                  
*LLANO         CLOUDY    64  55  72 E8        29.91F                  
BURNET         CLOUDY    62  56  80 S9        29.91F                  
*HORSESHOE BAY   N/A     69  59  71 S9G17     29.88F                  
*KERRVILLE     CLOUDY    64  60  89 S10       29.88F                  
*FREDERICKSBRG CLOUDY    64  57  78 S8        29.88F                  
*ROCKSPRINGS   PTSUNNY   66  57  72 S9        29.89F                  
*BOERNE STAGE  CLOUDY    68  59  73 S14       29.89F                  
*CASTROVILLE   PTSUNNY   76  60  58 CALM      29.87F                  
HONDO          PTSUNNY   75  61  61 S13       29.86F                  
*UVALDE        CLOUDY    67  58  73 CALM      29.88F                  
DEL RIO        SUNNY     71  53  52 S10       29.83F                  
LAUGHLIN AFB   MOSUNNY   72  55  54 SE5       29.83F                  
CARRIZO SPRGS  MOSUNNY   72  59  64 CALM      29.84F                  
*EAGLE PASS    CLEAR     73  55  53 VRB6G12   29.85S                  
$$

TXZ173-191>194-202-209-217>225-228-262200-
CENTRAL AND SOUTH CENTRAL TEXAS
  
CITY           SKY/WX    TMP DP  RH WIND       PRES   REMARKS
GEORGETOWN     CLOUDY    64  54  68 SE5       29.89F                  
AUSTIN/BERGSTM LGT RAIN  69  59  70 CALM      29.88F                  
AUSTIN/MABRY   CLOUDY    70  58  65 VRB7      29.90F                  
*AUSTIN/EXEC   PTSUNNY   68  59  73 S9        29.90F                  
*LAGO VISTA    CLOUDY    64  58  80 S7        29.89F                  
SAN MARCOS     CLOUDY    66  61  82 NE6       29.89F                  
NEW BRAUNFELS  CLOUDY    74  63  68 SE7       29.85F                  
RANDOLPH AFB   PTSUNNY   73  64  73 S5        29.85F                  
PT SAN ANTONIO MOSUNNY   75  63  64 SW5       29.84F                  
SAN ANTONIO    PTSUNNY   75  63  66 S9        29.86F                  
STINSON FIELD  CLOUDY    76  62  62 VRB5      29.84F                  
*PLEASANTON    PTSUNNY   81  61  49 S7        29.85F                  
*LA GRANGE     CLOUDY    72  62  71 S16G24    29.89F                  
*GIDDINGS      CLOUDY   N/A N/A N/A S9        29.91F                  
*GONZALES      CLOUDY    75  65  70 SE16      29.88F                  
$$

TXZ163>164-176>182-195>201-210>213-226-227-235-262200-
SOUTHEAST TEXAS
  
CITY           SKY/WX    TMP DP  RH WIND       PRES   REMARKS
COLLEGE STN    LGT RAIN  72  58  61 S15       29.91F                  
*BRYAN         CLOUDY    71  58  63 SE13      29.92F                  
*CALDWELL      NOT AVBL                                               
*CROCKETT      MOSUNNY   70  55  60 S15G21    29.95F                  
*BRENHAM       CLOUDY    73  58  61 SE10      29.92F                  
HUNTSVILLE     CLOUDY    71  54  54 SE12G23   29.93F                  
CONROE         CLOUDY    72  56  57 SE18G24   29.95F                  
HOUSTON BUSH   PTSUNNY   72  58  61 SE21      29.95F                  
HOUSTON HOBBY  CLOUDY    71  58  63 SE10G24   29.95F                  
*HOUSTON SW AP CLOUDY    72  60  66 SE12G22   29.96S                  
PEARLAND       CLOUDY    74  59  59 SE15G23   29.97F                  
HOUSTON HOOKS  CLOUDY    72  56  57 S8G20     29.95F                  
ELLINGTON FLD  CLOUDY    72  57  60 SE15      29.97F                  
SUGAR LAND     CLOUDY    72  60  66 SE17      29.94F                  
*HOUSTON EXEC  CLOUDY    72  57  60 SE15      29.95F                  
*CLEVELAND MUN CLOUDY    72  57  59 S9G22     29.97F                  
*WHARTON       CLOUDY    71  59  65 SE13      29.94F                  
*COLUMBUS      CLOUDY    70  59  66 S13G20    29.93F                  
*EAGLE LAKE    CLOUDY    73  63  71 S13G23    29.93F                  
$$

TXZ214>216-236>238-262200-
THE UPPER TEXAS COAST
  
CITY           SKY/WX    TMP DP  RH WIND       PRES   REMARKS
*ORANGE        PTSUNNY   71  60  67 SE14G22   30.03F                  
PORT ARTHUR    CLOUDY    71  59  65 E18G25    30.00F                  
GALVESTON      PTSUNNY   71  63  75 E17       29.96F                  
ANGLETON       CLOUDY    73  63  70 SE14G21   29.95F                  
*BAY CITY      CLOUDY    72  62  72 SE12      29.93F                  
PALACIOS       CLOUDY    74  63  68 SE20      29.92F                  
$$

TXZ229>234-239>247-262200-
TEXAS COASTAL BEND AND RIO GRANDE PLAINS
  
CITY           SKY/WX    TMP DP  RH WIND       PRES   REMARKS
VICTORIA       CLOUDY    73  66  78 SE14      29.91F                  
*BEEVILLE      CLOUDY    77  67  71 SE16G25   29.86F                  
ROCKPORT       PTSUNNY   77  65  66 SE14G23   29.89F                  
*PORT ARANSAS  CLOUDY    73  66  78 SE13      29.88F                  
*PORT LAVACA   CLOUDY    73  66  80 SE17G23   29.91F                  
*INGLESIDE     PTSUNNY   78  67  69 SE16G23   29.88F                  
CORPUS CHRISTI MOSUNNY   81  65  58 S24       29.86F                  
CORPUS NAS     MOSUNNY   78  71  79 SE21G28   29.88F                  
*ROBSTOWN      PTSUNNY   82  65  56 SE22G32   29.85F                  
ALICE          MOSUNNY   84  65  52 SE16G26   29.83F                  
KINGSVILLE NAS PTSUNNY   82  68  62 SE23G31   29.84F                  
COTULLA        MOSUNNY   82  60  47 VRB6      29.83F                  
*FAITH RANCH   SUNNY     79  61  53 VRB6      29.83F                  
LAREDO         SUNNY     85  61  44 S9G20     29.82F                  
$$

TXZ248>255-262200-
DEEP SOUTH TEXAS
  
CITY           SKY/WX    TMP DP  RH WIND       PRES   REMARKS
BROWNSVILLE    PTSUNNY   81  66  61 SE22      29.87F                  
PORT ISABEL    PTSUNNY   81  68  64 SE22G28   29.86F                  
*SOUTH PADRE   NOT AVBL                                               
HARLINGEN      PTSUNNY   82  65  56 S20       29.85F                  
*HEBBRONVILLE  PTSUNNY   85  57  38 S13G18    29.83F                  
MCALLEN        PTSUNNY   90  64  42 SE21      29.83F HX  91           
*WESLACO       CLOUDY    84  64  51 S18G25    29.84F                  
FALFURRIAS     PTSUNNY   85  61  43 S13G18    29.82F                  
EDINBURG       PTSUNNY   86  60  41 S16G22    29.83F                  
*ZAPATA        SUNNY     86  58  38 S10G17    29.81F                  
$$

TXZ213>215-236>238-242>244-246-247-251-254-255-262200-
CMAN STATIONS
  
STATION/POSITION TIME  TEMP    WIND        PRES    WAVE
                       AIR SEA DIR/SP/G            HT/PER
                 (UTC) (F)     (DEG/KT/KT) (MB)    (FT/S)
SABINE PASS      2048   65 68  110/ 18/ 22 1017.2
SEA RIM ST PARK  2100   67     110/ 14/ 18 1016.2
NORTH JETTY/GLS  2042   71 67  100/ 16/ 18   N/A
EAGLE POINT      2048   67 67  130/ 12/ 14 1014.6
MORGANS POINT    2048   69 66  110/ 12/ 16 1014.9
MISSION/ARANSAS  2000   71                 1013.0
PORT O'CONNOR    2048   69     120/ 13/ 15 1012.5
PORT ARANSAS     2100   70 67  130/ 12/ 13 1012.0
MALAQUITE BEACH  2048   70 69  130/ 13/ 15 1012.1
BAFFIN BAY       2048   74 74  120/ 17/ 22 1011.6
PORT ISABEL      2048   76 72  150/ 15/ 19 1011.6
$$
  

Return to Home page


Western Regional Climate Center, wrcc@dri.edu